Location: Étang Rond
(42.7927°N, 1.0661°E)
Time: 01:37:11
(UTC+00:00)

Cosmos 1459 Rocket - Pass Details

Date: 08 November 2025
Orbit: 936 x 997 km, 83.0° (Epoch: 07 December)

Event Time Altitude Azimuth Distance (km) Brightness Sun altitude
Rises 04:46:04 0° 350° (N) 3,728 6.9 -20.9°
Reaches altitude 10° 04:48:37 10° 348° (NNW) 2,775 6.2 -20.4°
Maximum altitude 04:54:58 72° 266° (W) 1,046 3.9 -19.3°
Drops below altitude 10° 05:01:13 10° 183° (S) 2,738 6.4 -18.1°
Sets 05:03:43 0° 181° (S) 3,675 7.1 -17.7°
